Volver al catálogo

ONEWEB-0046

ActivoComunicacionesPO
NORAD 45447·PAYLOAD·🇬🇧 United Kingdom

Lanzado Mar 21, 2020 desde Baikonur Cosmodrome

Loading…

Próximos Pases (próximas 24 horas)

TLE

ActualizadoSource: CelesTrak SupGP

Época: Sep 14, 2026, 19:34 UTC

1 45447C 20020Z   26257.81543241 -.00000778  00000+0 -21977-2 0  2576
2 45447  87.8975   3.2496 0001978 108.5850 354.0626 13.11420307    15

Sigue ONEWEB-0046 en tiempo real con AllMySat

Download on the App Store